Location: Blackwater Beach
(38.5801°N, 75.1577°W)
Time: 10:27:31
(UTC+00:00)

Cosmos 2221 Rocket - Pass Details

Date: 13 February 2026
Orbit: 616 x 641 km, 82.5° (Epoch: 11 March)

Event Time Altitude Azimuth Distance (km) Brightness Sun altitude
Rises 23:02:18 0° 180° (S) 2,898 7.2 -5.7°
Reaches altitude 10° 23:04:31 10° 178° (S) 2,000 6.3 -6.2°
Maximum altitude 23:08:56 71° 95° (E) 671 3.6 -7.0°
Drops below altitude 10° 23:13:25 10° 12° (NNE) 2,030 6.0 -7.9°
Sets 23:15:40 0° 10° (N) 2,946 6.8 -8.3°
